Simultaneous Nadir Overpasses (SNOs) Predictions

Prediction of SNOs between METOP-B and NOAA-19 Satellite Orbit:

Table of predicted SNOs for the next 14.0 days since TLE Epoch: 3/6/2021
Index Date (METOP-B) Time (METOP-B) Lat,Lon (METOP-B) SZA (METOP-B ) Date (NOAA-19) Time (NOAA-19) Lat,Lon (NOAA-19) SZA (NOAA-19 ) Distance(km) Time Diff (sec)
1 03/14/2021 09:34:23 -80.42,-116.69 96.39 03/14/2021 09:33:17 -80.44,-116.68 96.39 1.56 66
2 03/14/2021 10:25:03 80.43, 50.68 83.61 03/14/2021 10:24:13 80.43, 50.68 83.60 0.74 50
3 03/14/2021 11:15:45 -80.41,-142.17 96.44 03/14/2021 11:15:17 -80.43,-142.03 96.42 3.29 28
4 03/14/2021 12:06:25 80.41, 25.19 83.56 03/14/2021 12:06:13 80.43, 25.32 83.58 2.59 12
5 03/14/2021 12:57:06 -80.43,-167.34 96.44 03/14/2021 12:57:17 -80.42,-167.39 96.44 1.05 11
6 03/14/2021 13:47:46 80.43, 0.03 83.56 03/14/2021 13:48:13 80.42, -0.04 83.55 1.80 27
7 03/14/2021 14:38:28 -80.41, 167.18 96.49 03/14/2021 14:39:17 -80.42, 167.25 96.47 1.38 49



Historial Predications of SNOs between METOP-B and NOAA-19
